Location: Holiday Acres Laynes 2 Mobile Home Park
(26.7249°N, 81.8671°W)
Time: 14:43:17
(UTC+00:00)

COSMO-SKYMED 1 - Visible Passes

Search period start: 20 April 2021 00:00
Search period end: 30 April 2021 00:00
Orbit: 621 x 623 km, 97.9° (Epoch: 20 April)

Date Brightness Start Highest point End Pass type
(mag) Time Alt. Az. Time Alt. Az. Time Alt. Az.
21 Apr 5.9 00:20:32 10° NNW 00:23:29 18° WNW 00:26:27 10° WSW visible
22 Apr 6.5 00:40:15 10° NW 00:41:20 11° WNW 00:42:26 10° W visible
22 Apr 6.0 09:50:44 10° E 09:52:56 14° ENE 09:55:07 10° NE visible
23 Apr 5.4 10:07:25 10° SE 10:10:48 23° ENE 10:14:11 10° NNE visible
24 Apr 4.4 10:24:43 10° SE 10:28:43 37° ENE 10:32:43 10° N visible
27 Apr 6.3 00:33:24 10° NW 00:35:24 13° WNW 00:37:22 10° W visible
27 Apr 6.2 09:45:30 10° E 09:46:58 12° ENE 09:48:27 10° NE visible
28 Apr 5.7 10:01:46 10° ESE 10:04:50 19° ENE 10:07:54 10° NNE visible
29 Apr 4.8 10:18:54 10° SE 10:22:44 31° ENE 10:26:34 10° NNE visible
